START_TIME,STEP,MOV.,AL01,t_acc.,AL02,t_acc.,E37,t_acc.,H21,t_acc.
1979-07-23 03:00:33.880 ,1,0,1.,24.0,0.,24.0,0.,24.0,0.,24.0
1979-07-23 03:00:57.880 ,2,1,0.,24.0,0.,24.0,1.,24.0,0.,24.0
1979-07-23 03:01:21.880 ,2,0,0.,24.0,0.,24.0,0.,24.0,0.,24.0
1979-07-23 03:01:45.880 ,3,1,0.,24.0,0.,24.0,1.,24.0,0.,24.0
1979-07-23 03:02:09.880 ,3,0,0.,24.0,0.,24.0,0.,24.0,0.,24.0
1979-07-23 03:03:21.880 ,0,0,0.,24.0,0.,24.0,1.,24.0,0.,24.0
1979-07-23 03:03:45.880 ,0,0,0.,24.0,0.,24.0,0.,24.0,0.,24.0
1979-07-23 03:04:09.880 ,6,1,0.,24.0,1.,24.0,0.,24.0,0.,24.0
1979-07-23 03:04:33.880 ,6,0,0.,24.0,0.,24.0,0.,24.0,0.,24.0
1979-07-23 03:04:57.880 ,7,1,7.,24.0,0.,24.0,0.,24.0,0.,24.0
1979-07-23 03:05:21.880 ,7,0,26.,24.0,0.,24.0,0.,24.0,0.,24.0
1979-07-23 03:05:45.880 ,7,1,42.,24.0,0.,24.0,1.,24.0,0.,24.0
1979-07-23 03:06:09.880 ,7,0,30.,24.0,0.,24.0,0.,24.0,0.,24.0
1979-07-23 03:06:33.880 ,6,1,18.,24.0,0.,24.0,1.,24.0,0.,24.0
1979-07-23 03:06:57.880 ,6,0,0.,24.0,0.,24.0,0.,24.0,0.,24.0
1979-07-23 03:07:21.880 ,5,1,0.,24.0,0.,24.0,0.,24.0,0.,24.0
1979-07-23 03:07:45.880 ,5,0,1.,24.0,0.,24.0,1.,24.0,0.,24.0
1979-07-23 03:08:09.880 ,4,1,0.,24.0,0.,24.0,0.,24.0,0.,24.0
1979-07-23 03:08:33.880 ,4,0,0.,24.0,0.,24.0,0.,24.0,0.,24.0
1979-07-23 03:08:57.880 ,3,1,0.,24.0,0.,24.0,0.,24.0,0.,24.0
1979-07-23 03:09:21.880 ,3,0,0.,24.0,0.,24.0,1.,24.0,0.,24.0
1979-07-23 03:09:45.880 ,2,1,0.,24.0,0.,24.0,0.,24.0,0.,24.0
1979-07-23 03:10:09.880 ,2,0,0.,24.0,0.,24.0,0.,24.0,0.,24.0
1979-07-23 03:10:33.880 ,1,1,0.,24.0,0.,24.0,0.,24.0,0.,24.0
1979-07-23 03:10:57.880 ,1,0,0.,24.0,0.,24.0,1.,24.0,0.,24.0
1979-07-23 03:11:21.880 ,0,1,0.,24.0,0.,24.0,0.,24.0,0.,24.0
1979-07-23 03:11:45.880 ,0,0,0.,24.0,0.,24.0,0.,24.0,0.,24.0
1979-07-23 03:12:09.880 ,0,1,0.,24.0,0.,24.0,0.,24.0,0.,24.0
1979-07-23 03:12:33.880 ,0,0,0.,24.0,0.,24.0,1.,24.0,0.,24.0
1979-07-23 03:12:57.880 ,1,1,0.,24.0,0.,24.0,0.,24.0,0.,24.0
1979-07-23 03:13:21.880 ,1,0,0.,24.0,0.,24.0,0.,24.0,0.,24.0
1979-07-23 03:13:45.880 ,2,1,0.,24.0,0.,24.0,1.,24.0,0.,24.0
1979-07-23 03:14:09.880 ,2,0,0.,24.0,0.,24.0,1.,24.0,0.,24.0
1979-07-23 03:14:33.880 ,3,1,0.,24.0,0.,24.0,0.,24.0,0.,24.0
1979-07-23 03:14:57.880 ,3,0,0.,24.0,0.,24.0,1.,24.0,0.,24.0
1979-07-23 03:15:21.880 ,4,1,0.,24.0,0.,24.0,0.,24.0,0.,24.0
1979-07-23 03:15:45.880 ,4,0,0.,24.0,0.,24.0,1.,24.0,0.,24.0
1979-07-23 03:16:09.880 ,5,1,1.,24.0,0.,24.0,0.,24.0,0.,24.0
1979-07-23 03:16:33.880 ,5,0,0.,24.0,0.,24.0,1.,24.0,0.,24.0
1979-07-23 03:16:57.880 ,6,1,0.,24.0,0.,24.0,0.,24.0,0.,24.0
1979-07-23 03:17:21.880 ,6,0,0.,24.0,0.,24.0,0.,24.0,0.,24.0
1979-07-23 03:17:45.880 ,7,1,6.,24.0,0.,24.0,0.,24.0,0.,24.0
1979-07-23 03:18:09.880 ,7,0,38.,24.0,0.,24.0,0.,24.0,0.,24.0
1979-07-23 03:18:33.880 ,7,1,34.,24.0,0.,24.0,1.,24.0,0.,24.0
1979-07-23 03:18:57.880 ,7,0,21.,24.0,0.,24.0,0.,24.0,0.,24.0
1979-07-23 03:19:21.880 ,6,1,18.,24.0,0.,24.0,0.,24.0,0.,24.0
1979-07-23 03:19:45.880 ,6,0,0.,24.0,0.,24.0,0.,24.0,0.,24.0
1979-07-23 03:20:09.880 ,5,1,0.,24.0,0.,24.0,0.,24.0,0.,24.0
1979-07-23 03:20:33.880 ,5,0,0.,24.0,0.,24.0,1.,24.0,0.,24.0
1979-07-23 03:20:57.880 ,4,1,0.,24.0,0.,24.0,0.,24.0,0.,24.0
1979-07-23 03:21:21.880 ,4,0,0.,24.0,0.,24.0,3.,24.0,0.,24.0
1979-07-23 03:21:45.880 ,3,1,0.,24.0,0.,24.0,0.,24.0,0.,24.0
1979-07-23 03:22:09.880 ,3,0,0.,24.0,0.,24.0,0.,24.0,0.,24.0
1979-07-23 03:22:33.880 ,2,1,0.,24.0,0.,24.0,1.,24.0,0.,24.0
1979-07-23 03:22:57.880 ,2,0,0.,24.0,0.,24.0,1.,24.0,0.,24.0
1979-07-23 03:23:21.880 ,1,1,0.,24.0,0.,24.0,0.,24.0,0.,24.0
1979-07-23 03:23:45.880 ,1,0,0.,24.0,0.,24.0,0.,24.0,0.,24.0
1979-07-23 03:24:09.880 ,0,1,0.,24.0,1.,24.0,1.,24.0,0.,24.0
1979-07-23 03:24:33.880 ,0,0,0.,24.0,0.,24.0,0.,24.0,0.,24.0
1979-07-23 03:24:57.880 ,0,1,0.,24.0,0.,24.0,0.,24.0,0.,24.0
1979-07-23 03:25:21.880 ,0,0,,0,,0,,0,,0
1979-07-23 03:25:45.880 ,1,1,0.,24.0,0.,24.0,0.,24.0,0.,24.0
1979-07-23 03:26:09.880 ,1,0,0.,24.0,0.,24.0,0.,24.0,0.,24.0
1979-07-23 03:26:33.880 ,2,1,1.,24.0,0.,24.0,0.,24.0,0.,24.0
1979-07-23 03:26:57.880 ,2,0,0.,24.0,0.,24.0,1.,24.0,0.,24.0
1979-07-23 03:28:09.880 ,0,0,0.,24.0,0.,24.0,0.,24.0,0.,24.0
1979-07-23 03:28:33.880 ,0,0,0.,24.0,1.,24.0,0.,24.0,0.,24.0
1979-07-23 03:28:57.880 ,5,1,1.,24.0,0.,24.0,0.,24.0,0.,24.0
1979-07-23 03:29:21.880 ,5,0,0.,24.0,0.,24.0,0.,24.0,0.,24.0
1979-07-23 03:29:45.880 ,6,1,0.,24.0,1.,24.0,0.,24.0,0.,24.0
1979-07-23 03:30:09.880 ,6,0,0.,24.0,0.,24.0,1.,24.0,0.,24.0
1979-07-23 03:30:33.880 ,7,0,3.,24.0,0.,24.0,0.,24.0,0.,24.0
1979-07-23 03:30:57.880 ,7,0,36.,24.0,0.,24.0,1.,24.0,0.,24.0
1979-07-23 03:31:21.880 ,5,1,13.,24.0,0.,24.0,0.,24.0,0.,24.0
1979-07-23 03:31:45.880 ,1,1,0.,24.0,0.,24.0,2.,24.0,0.,24.0
1979-07-23 03:32:09.880 ,2,1,0.,24.0,0.,24.0,0.,24.0,0.,24.0
1979-07-23 03:32:33.880 ,6,1,0.,24.0,0.,24.0,0.,24.0,0.,24.0
1979-07-23 03:32:57.880 ,5,1,19.,24.0,0.,24.0,1.,24.0,0.,24.0
1979-07-23 03:33:21.880 ,1,1,0.,24.0,0.,24.0,1.,24.0,0.,24.0
1979-07-23 03:33:45.880 ,2,1,0.,24.0,0.,24.0,0.,24.0,0.,24.0
1979-07-23 03:34:09.880 ,6,1,0.,24.0,0.,24.0,0.,24.0,0.,24.0
1979-07-23 03:34:33.880 ,5,1,13.,24.0,0.,24.0,0.,24.0,0.,24.0
1979-07-23 03:34:57.880 ,1,1,0.,24.0,0.,24.0,0.,24.0,0.,24.0
1979-07-23 03:35:21.880 ,2,1,0.,24.0,0.,24.0,0.,24.0,0.,24.0
1979-07-23 03:35:45.880 ,6,1,0.,24.0,0.,24.0,0.,24.0,0.,24.0
1979-07-23 03:36:09.880 ,5,1,15.,24.0,1.,24.0,0.,24.0,0.,24.0
1979-07-23 03:36:33.880 ,1,1,0.,24.0,0.,24.0,0.,24.0,0.,24.0
1979-07-23 03:36:57.880 ,2,1,1.,24.0,0.,24.0,2.,24.0,0.,24.0
1979-07-23 03:37:21.880 ,6,1,1.,24.0,0.,24.0,0.,24.0,0.,24.0
1979-07-23 03:37:45.880 ,5,1,19.,24.0,0.,24.0,1.,24.0,0.,24.0
1979-07-23 03:38:09.880 ,1,1,1.,24.0,0.,24.0,0.,24.0,0.,24.0
1979-07-23 03:38:33.880 ,2,1,0.,24.0,0.,24.0,0.,24.0,0.,24.0
1979-07-23 03:38:57.880 ,6,1,0.,24.0,0.,24.0,0.,24.0,0.,24.0
1979-07-23 03:39:21.880 ,5,1,16.,24.0,0.,24.0,1.,24.0,0.,24.0
1979-07-23 03:39:45.880 ,1,1,1.,24.0,1.,24.0,1.,24.0,0.,24.0
1979-07-23 03:40:09.880 ,2,1,0.,24.0,0.,24.0,1.,24.0,0.,24.0
1979-07-23 03:40:33.880 ,6,1,1.,24.0,1.,24.0,0.,24.0,0.,24.0
1979-07-23 03:40:57.880 ,5,1,28.,24.0,0.,24.0,0.,24.0,0.,24.0
1979-07-23 03:41:21.880 ,1,1,0.,24.0,0.,24.0,0.,24.0,0.,24.0
1979-07-23 03:41:45.880 ,0,0,0.,24.0,0.,24.0,0.,24.0,0.,24.0
1979-07-23 03:42:09.880 ,0,0,1.,24.0,0.,24.0,2.,24.0,0.,24.0
1979-07-23 03:42:33.880 ,5,1,18.,24.0,0.,24.0,0.,24.0,0.,24.0
1979-07-23 03:42:57.880 ,5,0,0.,24.0,0.,24.0,1.,24.0,0.,24.0
1979-07-23 04:23:45.880 ,6,1,0.,24.0,0.,24.0,0.,24.0,0.,24.0
1979-07-23 04:24:09.880 ,5,1,17.,24.0,0.,24.0,0.,24.0,0.,24.0
1979-07-23 04:24:33.880 ,1,1,0.,24.0,1.,24.0,0.,24.0,0.,24.0
1979-07-23 04:24:57.880 ,2,1,0.,24.0,0.,24.0,0.,24.0,0.,24.0
1979-07-23 04:25:21.880 ,6,1,2.,24.0,0.,24.0,1.,24.0,0.,24.0
1979-07-23 04:25:45.880 ,5,1,19.,24.0,0.,24.0,1.,24.0,0.,24.0
1979-07-23 04:26:09.880 ,1,1,1.,24.0,0.,24.0,1.,24.0,0.,24.0
1979-07-23 04:26:33.880 ,2,1,0.,24.0,0.,24.0,0.,24.0,0.,24.0
1979-07-23 04:26:57.880 ,6,1,0.,24.0,0.,24.0,3.,24.0,0.,24.0
1979-07-23 04:27:21.880 ,5,1,17.,24.0,0.,24.0,0.,24.0,0.,24.0
1979-07-23 04:27:45.880 ,1,1,0.,24.0,0.,24.0,1.,24.0,0.,24.0
1979-07-23 04:28:09.880 ,2,1,0.,24.0,0.,24.0,2.,24.0,0.,24.0
1979-07-23 04:28:33.880 ,6,1,1.,24.0,0.,24.0,1.,24.0,0.,24.0
1979-07-23 04:28:57.880 ,5,1,16.,24.0,0.,24.0,0.,24.0,0.,24.0
1979-07-23 04:29:21.880 ,1,1,1.,24.0,0.,24.0,0.,24.0,0.,24.0
1979-07-23 04:29:45.880 ,0,0,1.,24.0,0.,24.0,0.,24.0,0.,24.0
1979-07-23 04:30:09.880 ,0,0,0.,24.0,0.,24.0,1.,24.0,0.,24.0
1979-07-23 04:30:33.880 ,5,1,18.,24.0,0.,24.0,0.,24.0,0.,24.0
1979-07-23 04:30:57.880 ,5,0,1.,24.0,1.,24.0,1.,24.0,0.,24.0
1979-07-23 04:31:21.880 ,4,1,2.,24.0,0.,24.0,0.,24.0,0.,24.0
1979-07-23 04:31:45.880 ,4,0,7.,24.0,0.,24.0,2.,24.0,0.,24.0
1979-07-23 04:32:09.880 ,3,1,1.,24.0,1.,24.0,0.,24.0,0.,24.0
1979-07-23 04:32:33.880 ,3,0,3.,24.0,1.,24.0,1.,24.0,0.,24.0
1979-07-23 04:32:57.880 ,2,1,0.,24.0,1.,24.0,0.,24.0,0.,24.0
1979-07-23 04:33:21.880 ,2,0,0.,24.0,0.,24.0,0.,24.0,0.,24.0
1979-07-23 04:33:45.880 ,1,1,1.,24.0,2.,24.0,0.,24.0,0.,24.0
1979-07-23 04:34:09.880 ,1,0,0.,24.0,1.,24.0,0.,24.0,0.,24.0
1979-07-23 04:34:33.880 ,0,1,0.,24.0,0.,24.0,0.,24.0,0.,24.0
1979-07-23 04:34:57.880 ,0,0,0.,24.0,0.,24.0,0.,24.0,0.,24.0
1979-07-23 04:35:21.880 ,0,1,0.,24.0,0.,24.0,1.,24.0,0.,24.0
1979-07-23 04:35:45.880 ,0,0,0.,24.0,0.,24.0,0.,24.0,0.,24.0
1979-07-23 04:36:09.880 ,1,1,0.,24.0,0.,24.0,0.,24.0,0.,24.0
1979-07-23 04:36:33.880 ,1,0,0.,24.0,0.,24.0,2.,24.0,0.,24.0
1979-07-23 04:36:57.880 ,2,1,1.,24.0,0.,24.0,2.,24.0,0.,24.0
1979-07-23 04:37:21.880 ,2,0,1.,24.0,0.,24.0,2.,24.0,0.,24.0
1979-07-23 04:37:45.880 ,3,1,4.,24.0,0.,24.0,1.,24.0,0.,24.0
1979-07-23 04:38:09.880 ,3,0,2.,24.0,0.,24.0,0.,24.0,0.,24.0
1979-07-23 04:38:33.880 ,4,1,2.,24.0,1.,24.0,0.,24.0,0.,24.0
1979-07-23 04:38:57.880 ,4,0,2.,24.0,0.,24.0,2.,24.0,0.,24.0
1979-07-23 04:39:21.880 ,5,1,3.,24.0,0.,24.0,0.,24.0,0.,24.0
1979-07-23 04:39:45.880 ,5,0,0.,24.0,0.,24.0,0.,24.0,0.,24.0
1979-07-23 04:40:09.880 ,6,1,3.,24.0,1.,24.0,0.,24.0,0.,24.0
1979-07-23 04:40:33.880 ,6,0,4.,24.0,0.,24.0,1.,24.0,0.,24.0
1979-07-23 04:40:57.880 ,7,1,9.,24.0,0.,24.0,0.,24.0,0.,24.0
1979-07-23 04:41:21.880 ,7,0,28.,24.0,0.,24.0,1.,24.0,0.,24.0
1979-07-23 04:41:45.880 ,7,1,30.,24.0,1.,24.0,3.,24.0,0.,24.0
1979-07-23 04:42:09.880 ,7,0,34.,24.0,0.,24.0,0.,24.0,0.,24.0
1979-07-23 04:42:33.880 ,6,1,16.,24.0,0.,24.0,0.,24.0,0.,24.0
1979-07-23 04:42:57.880 ,6,0,2.,24.0,0.,24.0,1.,24.0,0.,24.0
1979-07-23 04:43:21.880 ,5,1,3.,24.0,0.,24.0,1.,24.0,0.,24.0
1979-07-23 04:43:45.880 ,5,0,2.,24.0,0.,24.0,3.,24.0,0.,24.0
1979-07-23 04:44:09.880 ,4,1,4.,24.0,0.,24.0,0.,24.0,0.,24.0
1979-07-23 04:44:33.880 ,0,0,0.,24.0,0.,24.0,0.,24.0,0.,24.0
1979-07-23 04:44:57.880 ,3,1,0.,24.0,1.,24.0,0.,24.0,0.,24.0
1979-07-23 04:45:21.880 ,3,0,0.,24.0,0.,24.0,0.,24.0,0.,24.0
1979-07-23 04:45:45.880 ,2,1,2.,24.0,0.,24.0,0.,24.0,0.,24.0
1979-07-23 04:46:09.880 ,2,0,5.,24.0,0.,24.0,0.,24.0,0.,24.0
1979-07-23 04:46:33.880 ,1,1,5.,24.0,0.,24.0,2.,24.0,0.,24.0
1979-07-23 04:46:57.880 ,1,0,1.,24.0,0.,24.0,0.,24.0,0.,24.0
1979-07-23 04:47:21.880 ,0,1,0.,24.0,0.,24.0,0.,24.0,0.,24.0
1979-07-23 04:47:45.880 ,0,0,1.,24.0,0.,24.0,1.,24.0,0.,24.0
1979-07-23 04:48:09.880 ,0,1,0.,24.0,0.,24.0,0.,24.0,0.,24.0
1979-07-23 04:48:33.880 ,0,0,1.,24.0,0.,24.0,1.,24.0,0.,24.0
1979-07-23 04:48:57.880 ,1,1,0.,24.0,0.,24.0,1.,24.0,0.,24.0
1979-07-23 04:49:21.880 ,1,0,0.,24.0,2.,24.0,2.,24.0,0.,24.0
1979-07-23 04:49:45.880 ,2,1,1.,24.0,0.,24.0,0.,24.0,0.,24.0
1979-07-23 04:50:09.880 ,2,0,2.,24.0,0.,24.0,1.,24.0,0.,24.0
1979-07-23 04:50:33.880 ,3,1,4.,24.0,0.,24.0,0.,24.0,0.,24.0
1979-07-23 04:50:57.880 ,3,0,3.,24.0,2.,24.0,2.,24.0,0.,24.0
1979-07-23 04:51:21.880 ,4,1,3.,24.0,0.,24.0,1.,24.0,0.,24.0
1979-07-23 04:51:45.880 ,4,0,0.,24.0,0.,24.0,0.,24.0,0.,24.0
1979-07-23 04:52:09.880 ,5,1,0.,24.0,0.,24.0,1.,24.0,0.,24.0
1979-07-23 04:52:33.880 ,5,0,0.,24.0,0.,24.0,0.,24.0,0.,24.0
1979-07-23 04:52:57.880 ,6,1,0.,24.0,0.,24.0,2.,24.0,0.,24.0
1979-07-23 04:53:21.880 ,6,0,2.,24.0,0.,24.0,0.,24.0,0.,24.0
1979-07-23 04:53:45.880 ,7,1,9.,24.0,0.,24.0,2.,24.0,0.,24.0
1979-07-23 04:54:09.880 ,7,0,42.,24.0,0.,24.0,2.,24.0,0.,24.0
1979-07-23 04:54:33.880 ,7,1,26.,24.0,0.,24.0,0.,24.0,0.,24.0
1979-07-23 04:54:57.880 ,7,0,25.,24.0,0.,24.0,3.,24.0,0.,24.0
1979-07-23 04:55:21.880 ,6,1,18.,24.0,0.,24.0,0.,24.0,0.,24.0
1979-07-23 04:55:45.880 ,6,0,0.,24.0,0.,24.0,1.,24.0,0.,24.0
1979-07-23 04:56:09.880 ,5,1,2.,24.0,0.,24.0,2.,24.0,0.,24.0
1979-07-23 04:56:33.880 ,5,0,1.,24.0,1.,24.0,2.,24.0,0.,24.0
1979-07-23 04:56:57.880 ,4,1,0.,24.0,1.,24.0,2.,24.0,0.,24.0
1979-07-23 04:57:21.880 ,4,0,0.,24.0,0.,24.0,0.,24.0,0.,24.0
1979-07-23 04:57:45.880 ,3,1,1.,24.0,0.,24.0,0.,24.0,0.,24.0
1979-07-23 04:58:09.880 ,3,0,2.,24.0,0.,24.0,0.,24.0,0.,24.0
1979-07-23 04:58:33.880 ,2,1,4.,24.0,0.,24.0,1.,24.0,0.,24.0
1979-07-23 04:58:57.880 ,2,0,5.,24.0,0.,24.0,1.,24.0,0.,24.0
1979-07-23 04:59:21.880 ,1,1,3.,24.0,0.,24.0,3.,24.0,0.,24.0
1979-07-23 04:59:45.880 ,1,0,3.,24.0,0.,24.0,2.,24.0,0.,24.0
1979-07-23 05:00:09.880 ,0,1,2.,24.0,0.,24.0,2.,24.0,0.,24.0
1979-07-23 05:00:33.880 ,0,0,1.,24.0,0.,24.0,1.,24.0,0.,24.0
1979-07-23 05:00:57.880 ,0,1,0.,24.0,0.,24.0,1.,24.0,0.,24.0
1979-07-23 05:01:21.880 ,0,0,0.,24.0,0.,24.0,1.,24.0,0.,24.0
1979-07-23 05:01:45.880 ,1,1,1.,24.0,1.,24.0,2.,24.0,0.,24.0
1979-07-23 05:02:09.880 ,1,0,1.,24.0,0.,24.0,2.,24.0,0.,24.0
1979-07-23 05:02:33.880 ,2,1,2.,24.0,0.,24.0,3.,24.0,0.,24.0
1979-07-23 05:02:57.880 ,2,0,9.,24.0,1.,24.0,0.,24.0,0.,24.0
1979-07-23 05:03:21.880 ,3,1,2.,24.0,0.,24.0,3.,24.0,0.,24.0
1979-07-23 05:03:45.880 ,3,0,0.,24.0,0.,24.0,0.,24.0,0.,24.0
1979-07-23 05:04:09.880 ,4,1,0.,24.0,1.,24.0,1.,24.0,0.,24.0
1979-07-23 05:04:33.880 ,4,0,0.,24.0,0.,24.0,1.,24.0,0.,24.0
1979-07-23 05:04:57.880 ,5,1,0.,24.0,0.,24.0,1.,24.0,0.,24.0
1979-07-23 05:05:21.880 ,5,0,1.,24.0,1.,24.0,0.,24.0,0.,24.0
1979-07-23 05:05:45.880 ,6,1,2.,24.0,0.,24.0,4.,24.0,0.,24.0
1979-07-23 05:06:09.880 ,6,0,1.,24.0,1.,24.0,0.,24.0,0.,24.0
1979-07-23 05:06:33.880 ,7,0,7.,24.0,0.,24.0,1.,24.0,0.,24.0
1979-07-23 05:06:57.880 ,7,0,36.,24.0,0.,24.0,0.,24.0,0.,24.0
1979-07-23 05:07:21.880 ,5,1,14.,24.0,0.,24.0,1.,24.0,0.,24.0
1979-07-23 05:07:45.880 ,1,1,1.,24.0,2.,24.0,2.,24.0,0.,24.0
1979-07-23 05:08:09.880 ,2,1,1.,24.0,0.,24.0,3.,24.0,0.,24.0
1979-07-23 05:08:33.880 ,6,1,2.,24.0,1.,24.0,0.,24.0,0.,24.0
1979-07-23 05:08:57.880 ,5,1,17.,24.0,0.,24.0,3.,24.0,0.,24.0
1979-07-23 05:09:21.880 ,1,1,3.,24.0,0.,24.0,2.,24.0,0.,24.0
1979-07-23 05:09:45.880 ,2,1,3.,24.0,0.,24.0,4.,24.0,0.,24.0
1979-07-23 05:10:09.880 ,6,1,1.,24.0,0.,24.0,1.,24.0,0.,24.0
1979-07-23 05:10:33.880 ,5,1,12.,24.0,1.,24.0,1.,24.0,0.,24.0
1979-07-23 05:10:57.880 ,1,1,1.,24.0,0.,24.0,1.,24.0,0.,24.0
1979-07-23 05:11:21.880 ,2,1,1.,24.0,0.,24.0,3.,24.0,0.,24.0
1979-07-23 05:11:45.880 ,6,1,0.,24.0,1.,24.0,1.,24.0,0.,24.0
1979-07-23 05:12:09.880 ,5,1,17.,24.0,0.,24.0,2.,24.0,0.,24.0
1979-07-23 05:12:33.880 ,1,1,3.,24.0,0.,24.0,0.,24.0,0.,24.0
1979-07-23 05:12:57.880 ,2,1,0.,24.0,0.,24.0,2.,24.0,0.,24.0
1979-07-23 05:13:21.880 ,6,1,1.,24.0,0.,24.0,1.,24.0,0.,24.0
1979-07-23 05:13:45.880 ,5,1,21.,24.0,0.,24.0,0.,24.0,0.,24.0
1979-07-23 05:14:09.880 ,1,1,0.,24.0,1.,24.0,0.,24.0,0.,24.0
1979-07-23 05:14:33.880 ,2,1,0.,24.0,0.,24.0,0.,24.0,0.,24.0
1979-07-23 05:14:57.880 ,6,1,0.,24.0,1.,24.0,1.,24.0,0.,24.0
1979-07-23 05:15:21.880 ,5,1,21.,24.0,0.,24.0,0.,24.0,0.,24.0
1979-07-23 05:15:45.880 ,1,1,1.,24.0,0.,24.0,0.,24.0,0.,24.0
1979-07-23 05:16:09.880 ,2,1,1.,24.0,0.,24.0,0.,24.0,0.,24.0
1979-07-23 05:16:33.880 ,6,1,1.,24.0,0.,24.0,1.,24.0,0.,24.0
1979-07-23 05:16:57.880 ,5,1,15.,24.0,1.,24.0,1.,24.0,0.,24.0
1979-07-23 05:17:21.880 ,1,1,2.,24.0,0.,24.0,0.,24.0,0.,24.0
1979-07-23 05:17:45.880 ,0,0,1.,24.0,0.,24.0,1.,24.0,0.,24.0
1979-07-23 05:18:09.880 ,0,0,0.,24.0,0.,24.0,1.,24.0,0.,24.0
1979-07-23 05:18:33.880 ,5,1,13.,24.0,0.,24.0,0.,24.0,0.,24.0
1979-07-23 05:18:57.880 ,5,0,0.,24.0,1.,24.0,0.,24.0,0.,24.0
1979-07-23 05:19:21.880 ,4,1,0.,24.0,0.,24.0,1.,24.0,0.,24.0
1979-07-23 05:19:45.880 ,4,0,0.,24.0,0.,24.0,2.,24.0,0.,24.0
1979-07-23 05:20:09.880 ,3,1,0.,24.0,0.,24.0,0.,24.0,0.,24.0
1979-07-23 05:20:33.880 ,3,0,2.,24.0,0.,24.0,0.,24.0,0.,24.0
1979-07-23 05:20:57.880 ,2,1,0.,24.0,2.,24.0,1.,24.0,0.,24.0
1979-07-23 05:21:21.880 ,2,0,2.,24.0,1.,24.0,0.,24.0,0.,24.0
1979-07-23 05:21:45.880 ,1,1,6.,24.0,0.,24.0,0.,24.0,0.,24.0
1979-07-23 05:22:09.880 ,1,0,3.,24.0,1.,24.0,1.,24.0,0.,24.0
1979-07-23 05:22:33.880 ,0,1,3.,24.0,0.,24.0,1.,24.0,0.,24.0
1979-07-23 05:22:57.880 ,0,0,1.,24.0,0.,24.0,0.,24.0,0.,24.0
1979-07-23 05:23:21.870 ,0,1,3.,24.0,0.,24.0,1.,24.0,0.,24.0
1979-07-23 05:23:45.870 ,0,0,0.,24.0,0.,24.0,0.,24.0,0.,24.0
1979-07-23 05:24:09.870 ,1,1,0.,24.0,0.,24.0,1.,24.0,0.,24.0
1979-07-23 05:24:33.870 ,1,0,1.,24.0,0.,24.0,0.,24.0,0.,24.0
1979-07-23 05:24:57.870 ,2,1,4.,24.0,0.,24.0,0.,24.0,0.,24.0
1979-07-23 05:25:21.870 ,2,0,2.,24.0,0.,24.0,0.,24.0,0.,24.0
1979-07-23 05:25:45.870 ,3,1,2.,24.0,1.,24.0,0.,24.0,0.,24.0
1979-07-23 05:26:09.870 ,3,0,1.,24.0,0.,24.0,0.,24.0,0.,24.0
1979-07-23 05:26:33.870 ,4,1,1.,24.0,1.,24.0,0.,24.0,0.,24.0
1979-07-23 05:26:57.870 ,4,0,0.,24.0,0.,24.0,1.,24.0,0.,24.0
1979-07-23 05:27:21.870 ,5,1,0.,24.0,0.,24.0,0.,24.0,0.,24.0
1979-07-23 05:27:45.870 ,5,0,2.,24.0,0.,24.0,0.,24.0,0.,24.0
1979-07-23 05:28:09.870 ,6,1,0.,24.0,1.,24.0,0.,24.0,0.,24.0
1979-07-23 05:28:33.870 ,6,0,1.,24.0,0.,24.0,0.,24.0,0.,24.0
1979-07-23 05:28:57.870 ,7,1,7.,24.0,0.,24.0,1.,24.0,0.,24.0
1979-07-23 05:29:21.870 ,7,0,40.,24.0,0.,24.0,0.,24.0,0.,24.0
1979-07-23 05:29:45.870 ,7,1,38.,24.0,0.,24.0,0.,24.0,0.,24.0
1979-07-23 05:30:09.870 ,7,0,29.,24.0,0.,24.0,0.,24.0,0.,24.0
1979-07-23 05:30:33.870 ,6,1,18.,24.0,0.,24.0,0.,24.0,0.,24.0
1979-07-23 05:30:57.870 ,6,0,3.,24.0,0.,24.0,2.,24.0,0.,24.0
1979-07-23 05:31:21.870 ,5,1,0.,24.0,0.,24.0,2.,24.0,0.,24.0
1979-07-23 05:31:45.870 ,5,0,2.,24.0,0.,24.0,1.,24.0,0.,24.0
1979-07-23 05:32:09.870 ,4,1,2.,24.0,0.,24.0,1.,24.0,0.,24.0
1979-07-23 05:32:33.870 ,4,0,1.,24.0,0.,24.0,0.,24.0,0.,24.0
1979-07-23 05:32:57.870 ,3,1,0.,24.0,0.,24.0,0.,24.0,0.,24.0
1979-07-23 05:33:21.870 ,3,0,0.,24.0,0.,24.0,0.,24.0,0.,24.0
1979-07-23 05:33:45.870 ,2,1,2.,24.0,0.,24.0,0.,24.0,0.,24.0
1979-07-23 05:34:09.870 ,2,0,6.,24.0,0.,24.0,0.,24.0,0.,24.0
1979-07-23 05:34:33.870 ,1,1,3.,24.0,0.,24.0,0.,24.0,0.,24.0
1979-07-23 05:34:57.870 ,1,0,3.,24.0,0.,24.0,1.,24.0,0.,24.0
1979-07-23 05:35:21.870 ,0,1,0.,24.0,0.,24.0,2.,24.0,0.,24.0
1979-07-23 05:35:45.870 ,0,0,0.,24.0,0.,24.0,0.,24.0,0.,24.0
1979-07-23 05:36:09.870 ,0,1,0.,24.0,0.,24.0,0.,24.0,0.,24.0
1979-07-23 05:36:33.870 ,0,0,1.,24.0,0.,24.0,0.,24.0,0.,24.0
1979-07-23 05:36:57.870 ,1,1,0.,24.0,0.,24.0,0.,24.0,0.,24.0
1979-07-23 05:37:21.870 ,1,0,2.,24.0,0.,24.0,1.,24.0,0.,24.0
1979-07-23 05:37:45.870 ,2,1,3.,24.0,0.,24.0,1.,24.0,0.,24.0
1979-07-23 05:38:09.870 ,2,0,2.,24.0,0.,24.0,2.,24.0,0.,24.0
1979-07-23 05:38:33.870 ,3,1,1.,24.0,0.,24.0,0.,24.0,0.,24.0
1979-07-23 05:38:57.870 ,3,0,0.,24.0,0.,24.0,2.,24.0,0.,24.0
1979-07-23 05:39:21.870 ,4,1,0.,24.0,0.,24.0,0.,24.0,0.,24.0
1979-07-23 05:39:45.870 ,4,0,0.,24.0,0.,24.0,0.,24.0,0.,24.0
1979-07-23 05:40:09.870 ,5,1,0.,24.0,1.,24.0,0.,24.0,0.,24.0
1979-07-23 05:40:33.870 ,5,0,0.,24.0,0.,24.0,0.,24.0,0.,24.0
1979-07-23 05:40:57.870 ,6,1,0.,24.0,0.,24.0,0.,24.0,0.,24.0
1979-07-23 05:41:21.870 ,6,0,0.,24.0,0.,24.0,0.,24.0,0.,24.0
1979-07-23 05:41:45.870 ,7,1,3.,24.0,0.,24.0,1.,24.0,0.,24.0
1979-07-23 05:42:09.870 ,7,0,20.,24.0,0.,24.0,0.,24.0,0.,24.0
1979-07-23 05:42:33.870 ,7,1,39.,24.0,0.,24.0,0.,24.0,0.,24.0
1979-07-23 05:42:57.870 ,7,0,28.,24.0,0.,24.0,1.,24.0,0.,24.0
1979-07-23 05:43:21.870 ,6,1,24.,24.0,0.,24.0,2.,24.0,0.,24.0
1979-07-23 05:43:45.870 ,6,0,1.,24.0,0.,24.0,1.,24.0,0.,24.0
1979-07-23 05:44:09.870 ,5,1,0.,24.0,0.,24.0,0.,24.0,0.,24.0
1979-07-23 05:44:33.870 ,5,0,0.,24.0,0.,24.0,0.,24.0,0.,24.0
1979-07-23 05:44:57.870 ,4,1,1.,24.0,0.,24.0,3.,24.0,0.,24.0
1979-07-23 05:45:21.870 ,4,0,1.,24.0,0.,24.0,0.,24.0,0.,24.0
1979-07-23 05:45:45.870 ,3,1,0.,24.0,0.,24.0,0.,24.0,0.,24.0
1979-07-23 05:46:09.870 ,3,0,0.,24.0,0.,24.0,0.,24.0,0.,24.0
1979-07-23 05:46:33.870 ,2,1,1.,24.0,0.,24.0,0.,24.0,0.,24.0
1979-07-23 05:46:57.870 ,2,0,1.,24.0,1.,24.0,0.,24.0,0.,24.0
1979-07-23 05:47:21.870 ,1,1,0.,24.0,0.,24.0,2.,24.0,0.,24.0
1979-07-23 05:47:45.870 ,1,0,1.,24.0,0.,24.0,0.,24.0,0.,24.0
1979-07-23 05:48:09.870 ,0,1,0.,24.0,0.,24.0,0.,24.0,0.,24.0
1979-07-23 05:48:33.870 ,0,0,0.,24.0,0.,24.0,0.,24.0,0.,24.0
1979-07-23 05:48:57.870 ,0,1,1.,24.0,0.,24.0,1.,24.0,0.,24.0
1979-07-23 05:49:21.870 ,0,0,0.,24.0,0.,24.0,2.,24.0,0.,24.0
1979-07-23 05:49:45.870 ,1,1,2.,24.0,0.,24.0,0.,24.0,0.,24.0
1979-07-23 05:50:09.870 ,1,0,3.,24.0,1.,24.0,0.,24.0,0.,24.0
1979-07-23 05:50:33.870 ,2,1,3.,24.0,0.,24.0,2.,24.0,0.,24.0
1979-07-23 05:50:57.870 ,2,0,4.,24.0,1.,24.0,0.,24.0,0.,24.0
1979-07-23 05:51:21.870 ,3,1,1.,24.0,0.,24.0,0.,24.0,0.,24.0
1979-07-23 05:51:45.870 ,3,0,0.,24.0,0.,24.0,0.,24.0,0.,24.0
1979-07-23 05:52:09.870 ,4,1,0.,24.0,0.,24.0,0.,24.0,0.,24.0
1979-07-23 05:52:33.870 ,4,0,0.,24.0,0.,24.0,0.,24.0,0.,24.0
1979-07-23 05:52:57.870 ,5,1,1.,24.0,0.,24.0,0.,24.0,0.,24.0
1979-07-23 05:53:21.870 ,5,0,1.,24.0,0.,24.0,0.,24.0,0.,24.0
1979-07-23 05:53:45.870 ,6,1,0.,24.0,0.,24.0,0.,24.0,0.,24.0
1979-07-23 05:54:09.870 ,6,0,0.,24.0,0.,24.0,0.,24.0,0.,24.0
1979-07-23 05:54:33.870 ,7,0,7.,24.0,0.,24.0,1.,24.0,0.,24.0
1979-07-23 05:54:57.870 ,7,0,28.,24.0,0.,24.0,0.,24.0,0.,24.0
1979-07-23 05:55:21.870 ,5,1,23.,24.0,0.,24.0,1.,24.0,0.,24.0
1979-07-23 05:55:45.870 ,1,1,1.,24.0,0.,24.0,0.,24.0,0.,24.0
1979-07-23 05:56:09.870 ,2,1,1.,24.0,0.,24.0,1.,24.0,0.,24.0
1979-07-23 05:56:33.870 ,6,1,0.,24.0,0.,24.0,0.,24.0,0.,24.0
1979-07-23 05:56:57.870 ,5,1,20.,24.0,0.,24.0,0.,24.0,0.,24.0
1979-07-23 05:57:21.870 ,1,1,0.,24.0,0.,24.0,0.,24.0,0.,24.0
1979-07-23 05:57:45.870 ,2,1,2.,24.0,0.,24.0,0.,24.0,0.,24.0
1979-07-23 05:58:09.870 ,6,1,0.,24.0,0.,24.0,0.,24.0,0.,24.0
1979-07-23 05:58:33.870 ,5,1,12.,24.0,1.,24.0,1.,24.0,0.,24.0
1979-07-23 05:58:57.870 ,1,1,2.,24.0,0.,24.0,0.,24.0,0.,24.0
1979-07-23 05:59:21.870 ,2,1,2.,24.0,0.,24.0,0.,24.0,0.,24.0
1979-07-23 05:59:45.870 ,6,1,0.,24.0,0.,24.0,1.,24.0,0.,24.0
1979-07-23 06:00:09.870 ,5,1,9.,24.0,0.,24.0,0.,24.0,0.,24.0
